PLEIADES NEO 4

Last updated on Mon Jun 22 2026 00:02:52 GMT+0000 (Coordinated Universal Time)

1 49070U 21073E 26172.47391263 .00000439 00000+0 62438-4 0 9998 2 49070 97.8929 247.1755 0001341 88.1718 271.9648 14.81669156262003
UTC large
Height (km)
Speed (km/s)
/
Latitude / Longitude
Inclination (degrees)
Orbital Period (minutes)
Azimuth
Elevation
Range (km)
Doppler Factor

Next 0 passes for location: London (51.5072 / 0.1276)

No passes found over London.
PLEIADES NEO 4